Zurück zum Katalog

ATLAS 5 CENTAUR DEB

AktivHEO
NORAD 46857·DEBRIS·🇺🇸 United States

Gestartet Oct 17, 2018 von Cape Canaveral Space Force Station

Loading…

Nächste Überflüge (nächste 24 Stunden)

TLE

AktuellSource: Space-Track

Epoche: Sep 13, 2026, 19:05 UTC

1 46857U 18079DN  26256.79538035 -.00000138  00000-0  00000-0 0  9999
2 46857  12.7389  67.9887 4611991 248.6430  57.1717  1.69096427 36220

Verfolge ATLAS 5 CENTAUR DEB in Echtzeit mit AllMySat

Download on the App Store